Flag for Norway Weather past 2 weeks in Kongsvinger, Norway

Now
32 °F

Light snow. Passing clouds.


Feels Like: 23 °F
Forecast: 31 / 35 °F
Wind: 12 mph from South

Location: Oslo Gardermoen Airport

Current Time: Jan 28, 2015 at 6:15:53 PM

Latest Report: Jan 28, 2015 at 5:50 PM


Visibility: 2 mi

Pressure: 28.82 "Hg

Humidity: 93%

Dew point: 30 °F

Location of KongsvingerLocation

Historic Weather in Kongsvinger — Graph

°F

Kongsvinger temperature yesterday

Maximum temperature yesterday: 30 °F (at 11:50 PM)
Minimum temperature yesterday: 21 °F (at 6:50 AM)
Average temperature yesterday: 25 °F

Past Weeks' High & Low Weather Summary

 TemperatureHumidityPressure
High39 °F (Jan 16, 1:50 PM)100% (Jan 14, 4:50 PM)30.24 "Hg (Jan 14, 4:50 PM)
Low1 °F (Jan 23, 7:20 AM)65% (Jan 17, 1:20 AM)28.80 "Hg (Jan 16, 7:50 AM)
Average26 °F90%29.67 "Hg
* Reported Jan 13 4:20 PM — Jan 28 4:50 PM, Kongsvinger, Weather by CustomWeather, © 2014

Note: Actual official high and low records may vary slightly from our data, if they occured in-between our weather recording intervals... More about our weather records

Advertising

Kongsvinger weather history for previous 24 hours

 ConditionsComfort  
Time TempWeatherWind HumidityBarometerVisibility
4:50 PM
Jan 28
34 °FLight rain. Mostly cloudy.14 mph93%28.85 "HgN/A
4:20 PM36 °FLight rain. Passing clouds.15 mph93%28.88 "HgN/A
3:50 PM36 °FLight rain. Partly sunny.21 mph93%28.91 "HgN/A
3:20 PM36 °FLight rain. Partly sunny.15 mph93%28.94 "HgN/A
2:50 PM36 °FLight rain. Partly sunny.14 mph93%28.94 "HgN/A
2:20 PM36 °FLight rain. Partly sunny.14 mph93%28.97 "HgN/A
1:50 PM36 °FLight rain. Partly sunny.12 mph93%29.00 "HgN/A
1:20 PM36 °FPartly sunny.15 mph93%29.03 "HgN/A
12:50 PM36 °FLow clouds.21 mph93%29.06 "HgN/A
12:20 PM37 °FPartly sunny.18 mph87%29.09 "HgN/A
11:50 AM36 °FPartly sunny.16 mph93%29.09 "HgN/A
11:20 AM36 °FPartly sunny.22 mph93%29.12 "HgN/A
10:50 AM36 °FPartly sunny.21 mph100%29.12 "HgN/A
10:20 AM36 °FPartly sunny.20 mph100%29.15 "HgN/A
9:50 AM36 °FLight rain. Partly sunny.17 mph93%29.18 "HgN/A
9:20 AM36 °FLight rain. Partly sunny.17 mph93%29.21 "HgN/A
8:50 AM36 °FLight rain. Partly sunny.17 mph93%29.21 "HgN/A
8:20 AM36 °FLight rain. Passing clouds.15 mph93%29.24 "HgN/A
7:50 AM34 °FLight rain. Passing clouds.12 mph100%29.27 "HgN/A
7:20 AM34 °FLight rain. Passing clouds.10 mph93%29.27 "HgN/A
6:50 AM34 °FLight rain. Partly cloudy.8 mph93%29.30 "HgN/A
6:20 AM34 °FLight rain. Passing clouds.12 mph93%29.33 "HgN/A
5:50 AM34 °FPartly cloudy.12 mph93%29.33 "HgN/A
5:20 AM34 °FPartly cloudy.14 mph93%29.36 "HgN/A
4:50 AM34 °FPartly cloudy.12 mph93%29.36 "HgN/A
4:20 AM32 °FPassing clouds.12 mph93%29.39 "HgN/A
3:50 AM32 °FPassing clouds.9 mph93%29.42 "HgN/A
3:20 AM32 °FPassing clouds.9 mph93%29.42 "HgN/A
2:50 AM32 °FLow clouds.7 mph93%29.45 "HgN/A
2:20 AM32 °FLight freezing rain. Clear.6 mph93%29.47 "HgN/A
1:50 AM32 °FLight freezing rain. Passing clouds.12 mph87%29.47 "HgN/A
1:20 AM32 °FLight freezing rain. Overcast.8 mph87%29.50 "HgN/A
12:50 AM30 °FClear.5 mph93%29.53 "Hg10 mi
12:20 AM30 °FClear.6 mph86%29.53 "Hg10 mi
11:50 PM
Jan 27
30 °FClear.9 mph86%29.53 "Hg10 mi
11:20 PM28 °FClear.7 mph86%29.56 "Hg10 mi
10:50 PM27 °FClear.7 mph86%29.59 "Hg10 mi
10:20 PM27 °FClear.9 mph93%29.59 "Hg10 mi
9:50 PM27 °FPassing clouds.5 mph93%29.62 "HgN/A
9:20 PM28 °FClear.3 mph86%29.65 "Hg10 mi
8:50 PM28 °FClear.7 mph86%29.65 "Hg10 mi
8:20 PM28 °FClear.7 mph86%29.65 "Hg10 mi
7:50 PM27 °FClear.8 mph86%29.68 "Hg10 mi
7:20 PM28 °FClear.9 mph86%29.68 "Hg10 mi
6:50 PM28 °FClear.9 mph86%29.71 "Hg10 mi
6:20 PM28 °FClear.10 mph86%29.71 "Hg10 mi
Weather by CustomWeather, © 2014

See weather overviewHow to use our weather pages